Location: Palomar Mountain Lodge
(33.3110°N, 116.8495°W)
Time: 20:38:34
(UTC-07:00)

NOSS 2-3 (C) - Pass Details

Date: 14 June 2018
Orbit: 626 x 1586 km, 63.4° (Epoch: 22 July)

Event Time Altitude Azimuth Distance (km) Brightness Sun altitude
Exits shadow 21:05:51 - 187° (S) 2,882 6.7 -12.6°
Reaches altitude 10° 21:08:12 10° 177° (S) 1,988 5.8 -12.9°
Maximum altitude 21:12:09 33° 113° (ESE) 1,079 4.3 -13.6°
Drops below altitude 10° 21:16:26 10° 49° (NE) 2,171 6.3 -14.3°
Sets 21:19:08 0° 40° (NE) 3,204 7.2 -14.7°
